HAIYANG-1B

Last updated on Thu Oct 30 2025 00:02:30 GMT+0000 (Coordinated Universal Time)

1 31113U 07010A 25302.47252499 .00000173 00000+0 81562-4 0 9997 2 31113 98.3283 288.5867 0013803 160.4984 199.6731 14.30943095967630
UTC large
Height (km)
Speed (km/s)
/
Latitude / Longitude
Inclination (degrees)
Orbital Period (minutes)
Azimuth
Elevation
Range (km)
Doppler Factor

Next 0 passes for location: London (51.5072 / 0.1276)

Sorry there are no passes over London.